timestamp,wind_dir_avg,wind_spd_avg,wind_spd_max_dir,wind_spd_gust,battery_voltage,lat,long
2020-11-07 00:04:01+00:00,220.0,8.95,220.0,10.51,12.41,47.59359,-54.27349
2020-11-07 00:14:01+00:00,211.0,10.04,211.0,11.46,12.41,47.59359,-54.27349
2020-11-07 00:24:01+00:00,209.0,9.81,206.0,11.94,12.41,47.59359,-54.27349
2020-11-07 00:34:01+00:00,213.0,10.96,209.0,12.55,12.41,47.59359,-54.27349
2020-11-07 00:44:01+00:00,211.0,10.32,217.0,11.65,12.41,47.59359,-54.27349
2020-11-07 00:54:01+00:00,215.0,9.75,216.0,11.04,12.41,47.59359,-54.27349
2020-11-07 01:04:01+00:00,217.0,10.53,218.0,12.17,12.41,47.59359,-54.27349
2020-11-07 01:14:01+00:00,215.0,10.51,218.0,12.54,12.41,47.59359,-54.27349
2020-11-07 01:24:01+00:00,212.0,11.63,212.0,13.06,12.41,47.59359,-54.27349
2020-11-07 01:34:01+00:00,216.0,11.95,221.0,14.4,12.41,47.59359,-54.27349
2020-11-07 01:44:01+00:00,216.0,11.82,219.0,13.59,12.41,47.59359,-54.27349
2020-11-07 01:54:01+00:00,217.0,11.41,216.0,12.9,12.41,47.59359,-54.27349
2020-11-07 02:04:01+00:00,217.0,11.4,222.0,13.84,12.41,47.59359,-54.27349
2020-11-07 02:14:01+00:00,217.0,11.49,214.0,13.43,12.41,47.59359,-54.27349
2020-11-07 02:24:01+00:00,217.0,10.71,222.0,12.2,12.41,47.59359,-54.27349
2020-11-07 02:34:01+00:00,217.0,11.94,212.0,13.29,12.41,47.59359,-54.27349
2020-11-07 02:44:01+00:00,214.0,10.9,219.0,13.01,12.41,47.59359,-54.27349
2020-11-07 02:54:01+00:00,212.0,11.59,216.0,13.39,12.41,47.59359,-54.27349
2020-11-07 03:04:01+00:00,212.0,12.56,213.0,14.1,12.41,47.59359,-54.27349
2020-11-07 03:14:01+00:00,212.0,12.4,214.0,14.06,12.41,47.59359,-54.27349
2020-11-07 03:24:01+00:00,215.0,11.69,211.0,13.64,12.41,47.59359,-54.27349
2020-11-07 03:34:01+00:00,216.0,12.0,216.0,13.42,12.41,47.59359,-54.27349
2020-11-07 03:44:01+00:00,215.0,11.69,218.0,13.49,12.41,47.59359,-54.27349
2020-11-07 03:54:01+00:00,214.0,10.65,213.0,12.04,12.41,47.59359,-54.27349
2020-11-07 04:04:01+00:00,215.0,11.11,209.0,13.35,12.41,47.59359,-54.27349
2020-11-07 04:14:01+00:00,215.0,10.7,215.0,12.32,12.41,47.59359,-54.27349
2020-11-07 04:24:01+00:00,213.0,11.34,211.0,12.89,12.41,47.59359,-54.27349
2020-11-07 04:34:01+00:00,215.0,10.42,214.0,11.49,12.41,47.59359,-54.27349
2020-11-07 04:44:01+00:00,214.0,11.56,218.0,13.14,12.41,47.59359,-54.27349
2020-11-07 04:54:01+00:00,215.0,11.32,215.0,12.98,12.41,47.59359,-54.27349
2020-11-07 05:04:01+00:00,211.0,11.99,211.0,13.78,12.41,47.59359,-54.27349
2020-11-07 05:14:01+00:00,211.0,11.64,212.0,13.26,12.41,47.59359,-54.27349
2020-11-07 05:24:01+00:00,211.0,11.71,213.0,13.2,12.41,47.59359,-54.27349
2020-11-07 05:34:01+00:00,211.0,11.39,207.0,12.53,12.41,47.59359,-54.27349
2020-11-07 05:44:01+00:00,212.0,11.24,210.0,12.66,12.41,47.59359,-54.27349
2020-11-07 05:54:01+00:00,214.0,11.86,210.0,13.17,12.41,47.59359,-54.27349
2020-11-07 06:04:01+00:00,214.0,11.33,225.0,12.98,12.41,47.59359,-54.27349
2020-11-07 06:14:01+00:00,213.0,10.85,218.0,12.28,12.41,47.59359,-54.27349
2020-11-07 06:24:01+00:00,214.0,11.04,218.0,12.69,12.41,47.59359,-54.27349
2020-11-07 06:34:01+00:00,214.0,11.5,212.0,13.35,12.41,47.59359,-54.27349
2020-11-07 06:44:01+00:00,215.0,11.55,212.0,12.98,12.41,47.59359,-54.27349
2020-11-07 06:54:01+00:00,215.0,11.71,214.0,13.89,12.41,47.59359,-54.27349
2020-11-07 07:04:01+00:00,216.0,12.51,216.0,13.71,12.41,47.59359,-54.27349
2020-11-07 07:14:01+00:00,216.0,12.94,216.0,15.13,12.41,47.59359,-54.27349
2020-11-07 07:24:01+00:00,217.0,12.17,225.0,13.87,12.41,47.59359,-54.27349
2020-11-07 07:34:01+00:00,216.0,12.34,216.0,15.27,12.41,47.59359,-54.27349
2020-11-07 07:44:01+00:00,215.0,12.61,214.0,14.91,12.41,47.59359,-54.27349
2020-11-07 07:54:01+00:00,221.0,11.08,219.0,12.75,12.41,47.59359,-54.27349
2020-11-07 08:04:01+00:00,216.0,10.81,223.0,12.26,12.41,47.59359,-54.27349
2020-11-07 08:14:01+00:00,214.0,10.8,218.0,13.79,12.41,47.59359,-54.27349
2020-11-07 08:24:01+00:00,214.0,12.38,214.0,14.09,12.41,47.59359,-54.27349
2020-11-07 08:34:01+00:00,213.0,13.25,217.0,15.16,12.41,47.59359,-54.27349
2020-11-07 08:44:01+00:00,218.0,14.39,222.0,16.27,12.41,47.59359,-54.27349
2020-11-07 08:54:01+00:00,213.0,15.1,213.0,17.26,12.41,47.59359,-54.27349
2020-11-07 09:04:01+00:00,214.0,14.6,213.0,16.61,12.41,47.59359,-54.27349
2020-11-07 09:14:01+00:00,226.0,13.32,229.0,15.96,12.41,47.59359,-54.27349
2020-11-07 09:24:01+00:00,227.0,13.52,234.0,17.44,12.41,47.59359,-54.27349
2020-11-07 09:34:01+00:00,229.0,13.15,232.0,15.73,12.41,47.59359,-54.27349
2020-11-07 09:44:01+00:00,222.0,15.03,220.0,17.46,12.41,47.59359,-54.27349
2020-11-07 09:54:01+00:00,215.0,14.75,217.0,16.55,12.41,47.59359,-54.27349
2020-11-07 10:04:01+00:00,226.0,15.19,225.0,17.84,12.41,47.59359,-54.27349
2020-11-07 10:14:01+00:00,226.0,14.73,227.0,18.03,12.41,47.59359,-54.27349
2020-11-07 10:24:01+00:00,228.0,14.95,230.0,19.79,12.41,47.59359,-54.27349
2020-11-07 10:34:01+00:00,226.0,14.11,223.0,16.4,12.41,47.59359,-54.27349
2020-11-07 10:44:01+00:00,231.0,14.39,234.0,17.76,12.41,47.59359,-54.27349
2020-11-07 10:54:01+00:00,227.0,13.92,230.0,16.4,12.41,47.59359,-54.27349
2020-11-07 11:04:01+00:00,228.0,12.35,217.0,14.56,12.41,47.59359,-54.27349
2020-11-07 11:14:01+00:00,227.0,14.04,223.0,18.96,12.41,47.59359,-54.27349
2020-11-07 11:24:01+00:00,228.0,13.74,230.0,16.6,12.41,47.59359,-54.27349
2020-11-07 11:34:01+00:00,223.0,15.11,223.0,18.3,12.41,47.59359,-54.27349
2020-11-07 11:44:01+00:00,226.0,13.69,224.0,16.13,12.41,47.59359,-54.27349
2020-11-07 11:54:01+00:00,232.0,13.34,235.0,17.5,12.41,47.59359,-54.27349
2020-11-07 12:04:01+00:00,227.0,13.01,240.0,15.43,12.41,47.59359,-54.27349
2020-11-07 12:14:01+00:00,230.0,11.73,232.0,14.16,12.41,47.59359,-54.27349
2020-11-07 12:24:01+00:00,233.0,12.58,235.0,15.04,12.41,47.59359,-54.27349
2020-11-07 12:34:01+00:00,233.0,12.46,239.0,14.59,12.41,47.59359,-54.27349
2020-11-07 12:44:01+00:00,232.0,12.08,233.0,14.47,12.41,47.59359,-54.27349
2020-11-07 12:54:01+00:00,231.0,11.81,230.0,14.36,12.41,47.59359,-54.27349
2020-11-07 13:04:01+00:00,232.0,11.21,233.0,13.91,12.41,47.59359,-54.27349
2020-11-07 13:14:01+00:00,230.0,11.09,230.0,12.47,12.41,47.59359,-54.27349
2020-11-07 13:24:01+00:00,238.0,10.73,244.0,13.71,12.41,47.59359,-54.27349
2020-11-07 13:34:01+00:00,244.0,10.64,245.0,12.0,12.41,47.59359,-54.27349
2020-11-07 13:44:01+00:00,246.0,10.86,246.0,12.92,12.41,47.59359,-54.27349
2020-11-07 13:54:01+00:00,247.0,12.86,241.0,14.94,12.41,47.59359,-54.27349
2020-11-07 14:04:01+00:00,251.0,12.41,250.0,15.02,12.41,47.59359,-54.27349
2020-11-07 14:14:01+00:00,249.0,11.45,249.0,13.51,12.41,47.59359,-54.27349
2020-11-07 14:24:01+00:00,248.0,13.72,250.0,15.64,12.41,47.59359,-54.27349
2020-11-07 14:34:01+00:00,236.0,12.35,240.0,14.63,12.41,47.59359,-54.27349
2020-11-07 14:44:01+00:00,237.0,11.73,239.0,14.52,12.41,47.59359,-54.27349
2020-11-07 14:54:01+00:00,247.0,11.9,250.0,13.65,12.41,47.59359,-54.27349
2020-11-07 15:04:01+00:00,252.0,12.11,250.0,14.27,12.41,47.59359,-54.27349
2020-11-07 15:14:01+00:00,267.0,16.05,268.0,19.73,12.65,47.59359,-54.27349
2020-11-07 15:24:01+00:00,266.0,12.29,269.0,14.67,12.65,47.59359,-54.27349
2020-11-07 15:34:01+00:00,256.0,13.47,252.0,16.18,12.65,47.59359,-54.27349
2020-11-07 15:44:01+00:00,255.0,12.03,254.0,13.39,12.65,47.59359,-54.27349
2020-11-07 15:54:01+00:00,253.0,13.0,254.0,15.2,12.65,47.59359,-54.27349
2020-11-07 16:04:01+00:00,252.0,11.1,246.0,12.7,12.65,47.59359,-54.27349
2020-11-07 16:14:01+00:00,249.0,12.82,253.0,15.08,14.0,47.59359,-54.27349
2020-11-07 16:24:01+00:00,251.0,10.82,250.0,13.27,14.0,47.59359,-54.27349
2020-11-07 16:34:01+00:00,253.0,11.69,256.0,13.54,14.0,47.59359,-54.27349
2020-11-07 16:44:01+00:00,261.0,11.42,264.0,13.05,14.0,47.59359,-54.27349
2020-11-07 16:54:01+00:00,262.0,11.45,265.0,13.18,14.0,47.59359,-54.27349
2020-11-07 17:04:01+00:00,262.0,11.27,267.0,13.51,14.0,47.59359,-54.27349
2020-11-07 17:14:01+00:00,249.0,10.91,242.0,13.15,13.13,47.59359,-54.27349
2020-11-07 17:24:01+00:00,251.0,12.87,248.0,14.94,13.13,47.59359,-54.27349
2020-11-07 17:34:01+00:00,251.0,12.78,249.0,14.06,13.13,47.59359,-54.27349
2020-11-07 17:44:01+00:00,250.0,12.89,252.0,14.91,13.13,47.59359,-54.27349
2020-11-07 17:54:01+00:00,256.0,12.1,260.0,13.93,13.13,47.59359,-54.27349
2020-11-07 18:04:01+00:00,257.0,12.57,260.0,15.2,13.13,47.59359,-54.27349
2020-11-07 18:14:01+00:00,262.0,12.19,272.0,14.2,14.0,47.59359,-54.27349
2020-11-07 18:24:01+00:00,269.0,12.11,260.0,13.17,14.0,47.59359,-54.27349
2020-11-07 18:34:01+00:00,271.0,9.77,273.0,11.9,14.0,47.59359,-54.27349
2020-11-07 18:44:01+00:00,262.0,10.78,260.0,14.42,14.0,47.59359,-54.27349
2020-11-07 18:54:01+00:00,270.0,10.14,276.0,12.16,14.0,47.59359,-54.27349
2020-11-07 19:04:01+00:00,269.0,10.2,268.0,13.07,14.0,47.59359,-54.27349
2020-11-07 19:14:01+00:00,271.0,10.22,275.0,12.83,12.97,47.59359,-54.27349
2020-11-07 19:24:01+00:00,284.0,8.48,290.0,9.42,12.97,47.59359,-54.27349
2020-11-07 19:34:01+00:00,304.0,5.93,305.0,7.57,12.97,47.59359,-54.27349
2020-11-07 19:44:01+00:00,305.0,8.58,301.0,11.06,12.97,47.59359,-54.27349
2020-11-07 19:54:01+00:00,305.0,8.74,305.0,11.34,12.97,47.59359,-54.27349
2020-11-07 20:04:01+00:00,299.0,8.81,304.0,9.98,12.97,47.59359,-54.27349
2020-11-07 20:14:01+00:00,304.0,7.62,311.0,9.41,12.81,47.59359,-54.27349
2020-11-07 20:24:01+00:00,303.0,9.09,322.0,11.0,12.81,47.59359,-54.27349
2020-11-07 20:34:01+00:00,308.0,7.48,307.0,8.57,12.81,47.59359,-54.27349
2020-11-07 20:44:01+00:00,318.0,9.35,319.0,12.18,12.81,47.59359,-54.27349
2020-11-07 20:54:01+00:00,329.0,12.07,337.0,13.93,12.81,47.59359,-54.27349
2020-11-07 21:04:01+00:00,327.0,10.69,331.0,12.05,12.81,47.59359,-54.27349
2020-11-07 21:14:01+00:00,324.0,9.64,324.0,11.16,12.73,47.59359,-54.27349
2020-11-07 21:24:01+00:00,320.0,11.43,306.0,17.04,12.73,47.59359,-54.27349
2020-11-07 21:34:01+00:00,330.0,8.85,331.0,10.34,12.73,47.59359,-54.27349
2020-11-07 21:44:01+00:00,325.0,7.56,322.0,8.69,12.73,47.59359,-54.27349
2020-11-07 21:54:01+00:00,337.0,8.17,333.0,9.05,12.73,47.59359,-54.27349
2020-11-07 22:04:01+00:00,336.0,6.82,337.0,8.9,12.73,47.59359,-54.27349
2020-11-07 22:14:01+00:00,335.0,7.65,343.0,8.63,12.65,47.59359,-54.27349
2020-11-07 22:24:01+00:00,330.0,9.09,327.0,10.74,12.65,47.59359,-54.27349
2020-11-07 22:34:01+00:00,334.0,7.99,336.0,9.49,12.65,47.59359,-54.27349
2020-11-07 22:44:01+00:00,336.0,8.53,333.0,9.67,12.65,47.59359,-54.27349
2020-11-07 22:54:01+00:00,332.0,8.46,325.0,9.8,12.65,47.59359,-54.27349
2020-11-07 23:04:01+00:00,341.0,8.94,338.0,9.69,12.65,47.59359,-54.27349
2020-11-07 23:14:01+00:00,347.0,8.74,345.0,9.61,12.65,47.59359,-54.27349
2020-11-07 23:24:01+00:00,346.0,7.04,347.0,8.0,12.65,47.59359,-54.27349
2020-11-07 23:34:01+00:00,348.0,6.64,353.0,7.5,12.65,47.59359,-54.27349
2020-11-07 23:44:01+00:00,339.0,6.8,339.0,8.0,12.65,47.59359,-54.27349
2020-11-07 23:54:01+00:00,337.0,7.5,337.0,8.33,12.65,47.59359,-54.27349
